Regional Weather Roundup
Issued by NWS

Home | Current Version | Previous Version | Graphics & Text | Print | Product List | Glossary On
Versions: 1 2 3 4 5 6 7 8 9 10 11 12 13 14 15 16 17 18 19 20 21 22 23 24 25 26 27 28 29 30 31 32 33 34 35 36 37 38 39 40 41 42 43 44 45 46 47 48 49 50
000
ASUS43 KLMK 010210
RWRKY
KENTUCKY REGIONAL WEATHER ROUNDUP
NATIONAL WEATHER SERVICE LOUISVILLE KY
1000 PM EDT FRI SEP 30 2016

NOTE "FAIR" INDICATES FEW OR NO CLOUDS BELOW 12,000 FEET
WITH NO SIGNIFICANT WEATHER AND/OR OBSTRUCTIONS TO VISIBILITY.

KYZ001>023-026-027-061>063-070>075-010300-
WESTERN AND SOUTH CENTRAL KENTUCKY

CITY           SKY/WX    TMP DP  RH WIND       PRES   REMARKS
PADUCAH        CLOUDY    62  59  90 W6        30.02F
HENDERSON      CLOUDY    61  57  88 SW3       29.98F
OWENSBORO      MOCLDY   N/A N/A N/A S7        30.00F
HOPKINSVILLE   DRIZZLE   61  59  94 SW6       30.02F
BOWLING GREEN  PTCLDY    59  56  89 S6        30.03S
GLASGOW        MOCLDY    58  58 100 S5        30.03S
$$

KYZ024-025-028>034-038-045-046-053-010300-
NORTH CENTRAL KENTUCKY

CITY           SKY/WX    TMP DP  RH WIND       PRES   REMARKS
LOUISVILLE/SDF MOCLDY    57  54  89 SE3       30.01F
LOUISVILLE/LOU CLEAR     57  53  86 CALM      30.02S
FORT KNOX      FOG       55  54  94 SE2       30.00S VSB 3/4
$$

KYZ035>037-039>044-047>052-055>060-089>105-010300-
NORTHEAST KENTUCKY

CITY           SKY/WX    TMP DP  RH WIND       PRES   REMARKS
LEXINGTON      PTCLDY    55  51  86 SE6       30.04S
COVINGTON      CLOUDY    58  54  86 CALM      30.02S
FRANKFORT      MOCLDY    57  52  83 SE3       30.02S
$$

KYZ054-064>069-076>088-106>120-010300-
SOUTHEAST KENTUCKY

CITY           SKY/WX    TMP DP  RH WIND       PRES   REMARKS
JACKSON        CLEAR     57  47  69 CALM      30.06R
LONDON         CLEAR     54  50  86 SE3       30.05F
SOMERSET       PTCLDY    54  54 100 CALM      30.06S
MIDDLESBORO    CLEAR     53  52  96 CALM      30.08R
MONTICELLO     PTCLDY    51  50  96 NE9       30.07R
$$





USA.gov is the U.S. government's official web portal to all federal, state and local government web resources and services.